Regional Weather Roundup
Issued by NWS

Home | Current Version | Previous Version | Text Only | Print | Product List | Glossary Off
Versions: 1 2 3 4 5 6 7 8 9 10 11 12 13 14 15 16 17 18 19 20 21 22 23 24 25 26 27 28 29 30 31 32 33 34 35 36 37 38 39 40 41 42 43 44 45 46 47 48 49 50

000
ASUS44 KMEG 280900
RWRTN
TENNESSEE HOURLY STATE WEATHER ROUNDUP
NATIONAL WEATHER SERVICE MEMPHIS TN
400 AM CDT THU MAY 28 2015

TNZ002-004-019-021-049-052-054-088>092-281000-
WEST TENNESSEE

CITY           SKY/WX    TMP DP  RH WIND       PRES   REMARKS
MEMPHIS INTL   CLOUDY    70  65  84 SE6       30.12S
NWS MEMPHIS      N/A     68 N/A N/A MISG        N/A
JACKSON        NOT AVBL
DYERSBURG      CLEAR     64  52  63 CALM      30.14S
PARIS          PTCLDY    63  63 100 CALM      30.15S
LEXINGTON      CLOUDY    63  61  94 CALM      30.14S VSB 1/4
$$

TNZ008-025-027-028-033-062-065-066-281000-
NORTH MIDDLE TENNESSEE

CITY           SKY/WX    TMP DP  RH WIND       PRES   REMARKS
NASHVILLE      NOT AVBL
CLARKSVILLE    FOG       64  64 100 CALM      30.14F VSB 1
COOKEVILLE     MOCLDY    66  64  94 CALM      30.17R
CROSSVILLE     CLOUDY    65  62  90 CALM      30.21R
$$

TNZ061-075-076-078-094-096-097-281000-
SOUTH MIDDLE TENNESSEE

CITY           SKY/WX    TMP DP  RH WIND       PRES   REMARKS
FAYETTEVILLE     N/A    N/A N/A N/A MISG      30.16R
TULLAHOMA      CLOUDY    63  63 100 CALM      30.18R
WINCHESTER     CLOUDY    64  64 100 CALM      30.18R
MCMINNVILLE    CLOUDY    64  64 100 SE3       30.18R
COLUMBIA       PTCLDY    66  66 100 CALM      30.14R
SHELBYVILLE    PTCLDY    66  66 100 E6        30.17R
$$

TNZ017-018-042-046-047-281000-
NORTHEAST TENNESSEE

CITY           SKY/WX    TMP DP  RH WIND       PRES   REMARKS
TRI CITIES     CLOUDY    65  62  90 CALM      30.21S
ELIZABETHTON   MOSUNNY   61  59  94 NE3       30.22F
$$

TNZ012-013-036-069-073-074-281000-
CENTRAL EAST TENNESSEE

CITY           SKY/WX    TMP DP  RH WIND       PRES   REMARKS
KNOXVILLE      CLOUDY    69  61  75 SW3       30.17R
OAK RIDGE      CLOUDY    69  66  90 CALM      30.19R
GATLINBURG       N/A     64  61  88 CALM      30.18S
$$

TNZ083-085-099-281000-
SOUTHEAST TENNESSEE

CITY           SKY/WX    TMP DP  RH WIND       PRES   REMARKS
CHATTANOOGA    LGT RAIN  68  65  90 NW5       30.16R
$$

SKY/WX REPORTED AS FAIR MEANS FEW OR NO CLOUDS BELOW
12 THOUSAND FEET.



USA.gov is the U.S. government's official web portal to all federal, state and local government web resources and services.